MOLNIYA 1-75

Last updated on Sat Jun 24 2023 01:03:01 GMT+0100 (British Summer Time)

1 19807U 89014A 23174.15263613 -.00000917 00000+0 00000+0 0 9997 2 19807 63.8298 245.3319 6714520 264.8319 21.6678 2.00280841251494
UTC large
Height (km)
Speed (km/s)
/
Latitude / Longitude
Inclination (degrees)
Orbital Period (minutes)
Azimuth
Elevation
Range (km)
Doppler Factor

Next 0 passes for location: London (51.5072 / 0.1276)

Sorry there are no passes over London.